Location: Foulognes
(49.1413°N, 0.8183°W)
Time: 21:44:16
(UTC+00:00)

Resurs 01 Rocket - Pass Details

Date: 21 October 2019
Orbit: 634 x 645 km, 98.0° (Epoch: 16 November)

Event Time Altitude Azimuth Distance (km) Brightness Sun altitude
Exits shadow 19:06:08 13° 25° (NNE) 1,861 3.8 -20.9°
Drops below altitude 10° 19:06:52 10° 17° (NNE) 2,052 4.1 -21.0°
Sets 19:09:39 0° 359° (N) 2,965 5.2 -21.5°
